EHI
0 0 0 0 0 0 0 0 0 0 0 0 0 0 0 0 0 0 0 0 0 0 0 0 0 0 0 0 0 0 0 0 0 0 0 0 0 0 0 0 0 0 0 0 0 0 0 0 0
0 0 0 0 0 0 0 0 0 0 0 0 0 0 0 0 0 0 0 0 0 0 0 0 0 0 0 0 0 0 0 0 0 0 0 0 0 0 0 0 0 0 0 0 0 0 0 0 0
0 0 0 0 0 0 0 0 0 0 0 0 0 0 0 0 0 0 0 0 0 0 0 0 0 0 0 0 0 0 0 0 0 0 0 0 0 0 0 0 0 0 0 0 0 0 0 0 0
0 0 0 0 0 0 0 0 0 0 0 0 0 0 0 0 0 0 0 0 0 0 0 0 0 0 0 0 0 0 0 0 0 0 0 0 0 0 0 0 0 0 0 0 0 0 0 0 0
0 0 0 0 0 0 0 0 0 0 0 0 0 0 0 0 0 0 0 0 0 0 0 0 1 0 0 0 0 0 0 0 0 0 0 0 0 0 0 0 0 0 0 0 0 0 0 0 0
0 0 0 0 0 0 0 0 0 0 0 0 0 0 0 0 0 0 0 1 1 1 0 0 0 0 0 0 0 0 0 0 0 0 0 0 0 0 0 0 0 0 0 0 0 0 0 0 0
0 0 0 0 0 0 0 0 0 0 0 0 0 0 0 0 0 0 0 1 2 2 1 0 0 0 0 0 0 0 0 0 0 0 0 0 0 0 0 0 0 0 0 0 0 0 0 0 0
0 0 0 0 0 0 0 0 0 0 0 0 0 0 0 0 0 0 0 0 1 1 1 0 0 0 0 0 0 0 0 0 0 0 0 0 0 0 0 0 0 0 0 0 0 0 0 0 0
0 0 0 0 0 0 0 0 0 0 0 0 0 0 0 0 0 0 0 0 0 0 0 0 0 0 0 0 0 0 0 0 0 0 0 0 0 0 0 0 0 0 0 0 0 0 0 0 0
0 0 0 0 0 0 0 0 0 0 0 0 0 0 0 0 0 0 0 0 0 0 0 0 0 0 0 0 0 0 0 0 0 0 0 0 0 0 0 0 0 0 0 0 0 0 0 0 0
0 0 0 0 0 0 0 0 0 0 0 0 0 0 0 0 0 0 0 0 0 0 0 0 0 0 0 0 0 0 0 0 0 0 0 0 0 0 0 0 0 0 0 0 0 0 0 0 0
0 0 0 0 0 0 0 0 0 0 0 0 0 0 0 0 0 0 0 0 0 0 0 0 0 0 0 0 0 0 0 0 0 0 0 0 0 0 0 0 0 0 0 0 0 0 0 0 0
0 0 0 0 0 0 0 0 0 0 0 0 0 0 0 0 0 0 0 0 0 0 0 0 0 0 0 0 0 0 0 0 0 0 0 0 0 0 0 0 0 0 0 0 0 0 0 0 0
0 0 0 0 0 0 0 0 0 0 0 0 0 0 0 0 0 0 0 0 0 0 0 0 0 0 0 0 0 0 0 0 0 0 0 0 0 0 0 0 0 0 0 0 0 0 0 0 0
0 0 0 0 0 0 0 0 0 0 0 0 0 0 0 0 0 0 0 0 0 0 0 0 0 0 0 0 0 0 0 0 0 0 0 0 0 0 0 0 0 0 0 0 0 0 0 0 0
0 0 0 0 0 0 0 0 0 0 0 0 0 0 0 0 0 0 0 0 0 0 0 0 0 0 0 0 0 0 0 0 0 0 0 0 0 0 0 0 0 0 0 0 0 0 0 0 0
0 0 0 0 0 0 0 0 0 0 0 0 0 0 0 0 0 0 0 0 0 0 0 0 0 0 0 0 0 0 0 0 0 0 0 0 0 0 0 0 0 0 0 0 0 0 0 0 0
0 0 0 0 0 0 0 0 0 0 0 0 0 0 0 0 0 0 0 0 0 0 0 0 0 0 0 0 0 0 0 0 0 0 0 0 0 0 0 0 0 0 0 0 0 0 0 0 0
0 0 0 0 0 0 0 0 0 0 0 0 0 0 0 0 0 0 0 0 0 0 0 0 0 0 0 0 0 0 0 0 0 0 0 0 0 0 0 0 0 0 0 0 0 0 0 0 0
0 0 0 0 0 0 0 0 0 0 0 0 0 0 0 0 0 0 0 0 0 0 0 0 0 0 0 0 0 0 0 0 0 0 0 0 0 0 0 0 0 0 0 0 0 0 0 0 0
0 0 0 0 0 0 0 0 0 0 0 0 0 0 0 0 0 0 0 0 0 0 0 0 0 0 0 0 0 0 0 0 0 0 0 0 0 0 0 0 0 0 0 0 0 0 0 0 0
0 0 0 0 0 0 0 0 0 0 0 0 0 0 0 0 0 0 0 0 0 0 0 0 0 0 0 0 0 0 0 0 0 0 0 0 0 0 0 0 0 0 0 0 0 0 0 0 0
0 0 0 0 0 0 0 0 0 0 0 0 0 0 0 0 0 0 0 0 0 0 0 0 0 0 0 0 0 0 0 0 0 0 0 0 0 0 0 0 0 0 0 0 0 0 0 0 0
0 0 0 0 0 0 0 0 0 0 0 0 0 0 0 0 0 0 0 0 0 0 0 0 0 0 0 0 0 0 0 0 0 0 0 0 0 0 0 0 0 0 0 0 0 0 0 0 0
0 0 0 0 0 0 0 0 0 0 0 0 0 0 0 0 0 0 0 0 0 0 0 0 0 0 0 0 0 0 0 0 0 0 0 0 0 0 0 0 0 0 0 0 0 0 0 0 0
0 0 0 0 0 0 0 0 0 0 0 0 0 0 0 0 0 0 0 0 0 0 0 0 0 0 0 0 0 0 0 0 0 0 0 0 0 0 0 0 0 0 0 0 0 0 0 0 0
0 0 0 0 0 0 0 0 0 0 0 0 0 0 0 0 0 0 0 0 0 0 0 0 0 0 0 0 0 0 0 0 0 0 0 0 0 0 0 0 0 0 0 0 0 0 0 0 0
0 0 0 0 0 0 0 0 0 0 0 0 0 0 0 0 0 0 0 0 0 0 0 0 0 0 0 0 0 0 0 0 0 0 0 0 0 0 0 0 0 0 0 0 0 0 0 0 0
0 0 0 0 0 0 0 0 0 0 0 0 0 0 0 0 0 0 0 0 0 0 0 0 0 0 0 0 0 0 0 0 0 0 0 0 0 0 0 0 0 0 0 0 0 0 0 0 0
0 0 0 0 0 0 0 0 0 0 0 0 0 0 0 0 0 0 0 0 0 0 0 0 0 0 0 0 0 0 0 0 0 0 0 0 0 0 0 0 0 0 0 0 0 0 0 0 0
Wind_Speed
11 8 5 2 2 5 8 6 3 1 1 3 4 3 3 5 4 4 3 3 5 6 7 6 6 8 9 9 8 8 8 8 8 8 8 8 8 8 8 8 8 8 8 8 9 9 10 10 10
8 6 3 3 4 6 7 5 3 1 3 3 2 2 1 5 6 6 2 3 5 6 6 6 7 9 9 8 8 8 7 7 7 7 7 7 7 7 7 7 8 8 8 8 9 9 9 9 9
8 6 3 3 6 7 5 1 2 5 5 2 1 2 3 4 5 4 3 3 4 6 6 7 7 8 9 8 8 7 7 7 7 7 7 7 7 8 8 8 8 8 8 9 9 9 9 9 8
4 3 4 5 9 6 4 2 2 3 3 2 1 2 4 5 4 4 4 3 5 6 7 7 8 9 9 8 8 7 7 7 7 7 7 7 7 7 7 8 8 8 9 9 9 9 9 9 8
3 3 5 7 10 6 3 2 1 2 3 2 2 1 4 4 6 7 5 4 5 6 7 7 7 8 8 8 7 7 6 6 6 6 6 7 7 7 7 7 8 8 8 9 9 8 8 8 8
3 3 5 8 8 6 3 2 3 3 1 1 1 2 4 5 6 5 4 4 5 6 6 7 7 8 8 7 7 6 6 6 6 6 6 6 6 6 7 7 8 8 8 8 8 8 8 8 7
4 4 7 9 7 5 3 1 3 3 2 2 1 1 5 4 5 5 4 4 5 6 6 5 5 6 7 7 6 6 6 5 6 6 6 6 6 6 6 7 7 7 8 8 8 8 7 7 7
3 4 7 8 8 5 1 1 1 3 2 1 0 1 3 5 6 5 4 4 4 5 5 5 5 5 5 4 5 5 5 6 6 6 6 6 5 5 6 5 6 7 7 8 8 7 7 7 6
4 4 6 6 5 2 1 2 1 1 2 0 0 2 5 9 7 6 4 4 4 4 3 4 4 4 4 4 4 4 5 5 5 4 5 4 2 2 3 5 6 6 7 7 7 7 6 5 4
3 5 6 4 4 3 3 4 3 2 4 3 2 4 8 8 7 7 6 5 5 4 3 3 3 4 4 3 3 2 2 2 2 2 2 2 1 2 3 5 5 5 6 6 6 5 4 3 2
3 5 4 4 4 4 4 5 4 4 5 4 4 6 8 7 7 7 6 6 5 5 4 3 3 3 3 2 2 2 1 2 2 2 1 1 2 2 2 2 2 2 4 3 3 2 1 2 2
4 4 4 4 2 4 5 5 5 7 6 3 1 5 8 8 9 8 7 6 5 5 5 4 3 3 3 3 2 2 2 1 1 1 1 1 1 1 1 1 2 2 1 2 2 1 2 2 2
5 4 4 3 3 4 5 6 7 9 6 4 3 4 7 8 8 7 6 6 6 5 5 5 4 3 3 3 2 2 2 2 2 1 1 2 1 1 1 1 2 2 2 2 2 1 2 2 2
3 4 5 4 4 4 6 8 8 9 5 5 5 7 7 7 7 6 6 7 7 6 5 5 4 4 3 3 3 2 2 2 2 1 2 2 1 1 1 1 1 2 2 2 2 2 2 1 2
3 5 7 7 5 4 5 10 10 8 5 6 6 6 6 6 6 7 7 7 7 6 6 5 5 4 4 3 3 2 2 3 2 2 2 2 2 2 1 1 1 2 2 2 2 2 2 2 2
5 5 5 5 5 4 5 10 6 4 5 7 7 6 5 6 6 5 6 6 6 6 7 6 5 5 4 3 3 2 2 2 2 2 2 3 3 3 2 2 2 2 2 2 2 2 2 1 1
5 5 6 4 6 4 7 9 4 4 6 8 8 7 6 6 6 5 6 6 6 6 7 7 6 5 4 3 2 2 2 2 2 2 2 3 3 4 3 2 2 2 2 2 2 2 2 2 2
3 5 5 5 4 5 8 10 7 5 7 8 8 6 6 6 5 5 5 5 5 5 6 6 6 5 4 3 2 2 2 2 2 2 2 3 3 4 3 3 3 3 2 2 2 2 2 2 2
6 7 8 6 2 4 9 11 10 6 7 8 7 6 6 6 5 5 5 5 5 5 5 7 6 6 5 4 3 3 3 3 2 2 2 3 3 4 4 3 3 3 3 3 3 2 2 2 2
8 8 8 5 2 4 7 12 10 7 8 7 7 7 6 4 4 5 6 6 5 5 5 6 6 6 6 4 3 2 2 2 3 2 2 3 3 3 3 4 4 4 3 4 3 3 2 1 2
8 7 6 6 6 6 6 8 7 5 6 6 6 7 6 6 5 5 6 6 5 5 6 5 5 6 5 4 3 2 2 1 2 3 3 3 4 4 3 3 3 4 4 4 4 4 3 3 2
7 3 5 5 5 4 3 6 5 5 6 7 7 6 5 5 5 4 5 5 5 5 4 5 5 5 5 5 4 5 4 4 4 3 3 4 4 4 4 4 4 4 4 4 5 4 3 4 3
4 2 4 5 5 5 5 5 6 5 5 6 6 6 5 4 4 4 4 5 5 4 4 4 4 5 5 4 4 4 3 3 2 3 4 4 4 4 4 4 4 4 4 5 5 4 4 4 4
3 2 4 3 2 5 6 5 6 4 5 4 5 5 4 3 3 3 3 2 3 3 4 4 4 4 5 5 4 4 4 3 3 4 4 4 3 3 5 5 4 5 4 5 5 5 5 4 4
3 1 1 2 3 6 4 4 7 2 2 1 2 3 4 3 3 2 2 2 2 2 3 3 4 4 5 5 5 5 4 4 5 4 4 4 3 4 6 6 5 5 5 5 5 5 5 5 5
5 3 3 3 3 3 3 7 5 1 2 2 2 2 3 2 2 2 2 3 3 3 3 3 3 4 4 5 5 4 4 4 3 4 3 4 4 4 4 5 5 5 5 5 5 5 5 4 5
3 4 2 1 2 4 5 4 2 1 2 2 2 2 1 1 2 2 1 2 2 3 3 3 2 2 3 4 4 4 5 4 4 3 3 3 3 3 4 5 5 5 5 5 5 4 5 4 5
3 2 1 3 2 5 5 4 4 2 1 2 1 1 0 1 1 1 1 1 1 2 2 2 2 1 1 2 3 3 4 4 4 3 4 3 4 3 4 5 5 5 5 5 5 4 5 5 4
4 4 3 3 3 3 4 4 1 4 4 3 1 1 0 1 1 1 1 2 1 1 2 1 1 1 1 1 2 2 2 3 3 3 3 3 3 4 4 5 5 5 5 5 5 5 5 6 5
3 5 5 4 4 4 4 6 1 3 3 3 2 1 2 2 1 1 1 2 2 1 1 1 0 0 1 1 1 2 2 2 2 3 2 2 3 3 3 4 5 5 5 5 6 6 6 6 6
Wind_Direction
299 266 247 245 241 236 240 239 254 267 49 30 21 16 22 30 26 96 105 77 86 112 128 135 121 117 112 107 105 100 96 97 98 98 95 91 88 86 83 78 77 77 77 79 80 77 74 71 69
294 277 247 230 234 238 241 238 218 84 71 57 35 5 48 77 69 93 91 66 99 115 128 132 118 117 113 109 105 100 95 95 97 98 97 93 90 87 84 82 80 79 78 80 79 76 74 73 72
277 263 248 228 232 240 250 285 93 94 94 86 70 9 26 71 89 98 96 98 105 107 112 115 111 113 113 110 105 100 96 94 97 98 97 96 93 90 87 83 80 80 80 80 79 76 73 71 71
272 233 237 242 245 245 261 329 76 115 121 129 157 117 85 62 75 97 107 114 108 108 109 113 111 110 108 108 107 104 102 99 100 100 98 95 95 93 89 85 83 83 81 80 80 79 76 74 71
240 245 233 239 244 246 264 323 317 173 168 161 184 154 106 92 93 107 117 115 108 108 110 122 113 111 108 105 104 105 105 102 105 103 99 94 93 95 93 89 89 86 83 83 83 82 80 77 73
246 238 240 242 238 231 232 270 275 256 180 142 217 187 113 111 106 111 118 118 111 109 111 123 112 109 107 105 101 97 101 104 106 102 99 95 93 97 96 92 93 90 87 87 86 84 82 78 73
261 258 255 262 257 241 225 236 273 276 246 183 255 191 133 131 117 120 116 116 112 109 112 124 127 117 106 102 99 96 94 94 98 101 95 88 88 88 89 89 94 93 92 91 86 82 80 77 71
284 273 255 256 256 251 229 228 285 293 289 49 307 228 142 138 124 121 115 116 111 110 114 131 136 131 125 115 101 92 89 89 92 94 93 88 85 83 83 81 92 94 94 92 88 83 82 79 73
270 252 253 260 271 275 316 278 260 311 279 218 295 20 97 123 128 132 132 133 122 117 122 132 143 137 134 130 121 107 99 95 95 95 103 104 103 99 91 85 89 97 98 98 95 88 87 82 76
238 243 255 288 314 310 303 294 283 248 243 218 187 117 118 134 152 160 166 164 157 152 144 133 143 140 135 134 130 134 133 122 107 101 119 132 121 99 97 86 91 95 99 101 98 93 90 78 68
235 245 268 290 332 317 292 288 283 264 259 239 206 167 152 161 175 181 179 175 173 162 149 144 140 140 135 133 135 143 144 137 125 110 112 125 110 108 107 110 104 112 114 112 108 104 89 77 67
251 259 274 280 314 297 287 283 279 258 260 297 254 168 171 181 188 192 188 184 176 168 163 154 150 147 148 148 147 147 141 136 128 131 120 101 114 128 131 141 142 146 134 121 109 105 89 79 71
243 255 267 275 276 272 279 271 269 262 256 263 248 202 195 196 198 193 193 182 178 176 173 166 160 159 152 154 154 144 149 147 142 147 125 103 114 132 134 137 139 136 127 131 126 113 101 88 74
270 266 261 247 250 265 267 266 261 256 239 234 225 219 213 206 199 190 188 184 183 180 175 169 168 168 164 164 163 160 161 155 148 149 142 139 135 145 138 133 136 140 140 131 127 124 107 91 84
255 263 258 236 230 236 271 265 237 238 219 234 233 225 210 206 199 195 190 188 182 178 173 174 173 170 172 172 175 165 163 154 155 161 160 154 150 149 154 145 151 156 144 135 129 122 111 107 92
240 246 249 215 212 206 229 260 236 195 205 231 233 228 208 206 201 195 182 180 178 175 174 176 178 172 173 175 172 165 164 160 164 162 162 163 159 157 155 158 161 153 135 138 145 144 128 120 110
221 249 254 231 199 208 227 259 246 189 206 231 234 229 213 207 195 185 177 175 175 176 174 174 176 175 172 167 161 159 161 169 167 159 164 172 171 164 164 167 170 160 151 149 159 152 147 138 126
253 259 267 259 200 216 239 256 261 219 217 232 234 227 210 208 198 181 168 168 167 170 171 168 170 170 165 159 161 166 169 177 167 172 179 175 180 172 167 169 173 164 157 156 153 151 154 152 144
286 278 275 277 266 243 249 261 263 241 231 237 232 226 213 208 188 167 162 159 157 162 168 170 173 173 169 170 178 183 187 179 179 190 182 180 184 180 175 175 176 171 170 171 166 151 161 164 144
262 270 278 288 295 273 266 266 260 241 226 227 227 227 215 198 177 170 166 163 169 171 173 175 178 176 178 180 183 183 167 177 177 182 193 183 179 184 187 183 182 177 172 173 175 163 168 182 172
254 256 273 287 301 262 275 272 235 223 210 219 227 226 213 198 194 184 174 176 177 181 183 186 181 179 179 175 169 161 150 152 179 193 203 202 191 192 189 192 190 186 180 183 185 182 175 183 208
258 264 272 277 287 275 244 280 245 213 214 219 224 222 215 204 191 185 178 180 181 184 181 180 176 176 177 173 183 186 190 197 205 199 198 199 194 190 193 197 196 195 190 188 189 187 188 174 192
263 308 274 265 258 275 232 248 266 200 225 223 219 213 205 199 187 180 184 186 178 175 175 176 172 173 175 178 193 198 208 214 198 189 192 200 197 194 198 201 197 198 199 195 192 187 193 189 190
262 269 251 250 244 259 224 218 267 219 215 210 199 198 195 190 184 177 171 157 166 166 165 170 173 177 178 184 193 202 210 211 201 198 200 204 202 200 202 204 204 203 201 198 194 195 199 199 196
224 208 286 254 234 246 189 209 249 238 167 157 170 180 182 177 179 173 159 161 167 167 172 178 179 184 182 188 197 205 209 210 212 208 206 206 203 207 209 207 208 207 205 200 191 195 202 202 198
215 204 191 236 255 277 198 225 240 158 77 65 83 128 146 154 163 170 175 176 182 181 176 179 194 198 190 193 200 204 208 210 218 217 211 210 212 214 206 207 208 209 205 202 194 196 203 204 205
216 215 222 248 284 273 249 238 247 140 82 70 72 77 114 149 158 160 161 174 182 180 182 183 197 217 209 206 202 205 209 211 217 221 218 212 215 210 203 206 206 209 206 202 196 202 202 203 207
249 246 178 192 234 266 264 239 232 196 168 109 83 59 86 138 132 143 147 145 159 167 171 172 189 214 230 222 222 222 215 215 215 211 217 216 213 206 201 204 203 206 207 201 199 202 203 203 208
193 207 214 217 221 230 270 263 211 146 148 150 148 113 69 135 140 140 120 113 118 121 129 144 172 209 234 250 246 234 226 224 222 223 223 212 206 196 199 202 202 207 209 201 204 206 201 205 210
217 212 191 198 231 228 251 264 76 100 104 113 108 69 36 62 93 100 95 92 93 100 104 113 170 252 268 259 272 240 230 224 228 234 233 205 201 199 202 200 200 206 208 203 206 208 207 209 213